EW5961 Weather Reports


Display with metric or nautical units.
time (UTC)temp
F
wind
direction
speed
MPH
gust
MPH
rain 1hr
in
rain 24hr
in
rain mn
in
humidity
%
barometer
mb
20260505001547 86 24 21.0 26.0 0.00 0.00 0.00 72 1009.7
20260505000052 87 12 13.0 20.0 0.00 0.00 0.00 71 1009.8
20260504234544 88 27 14.0 20.0 0.00 0.00 0.00 70 1009.7
20260504233044 88 5 10.0 18.0 0.00 0.00 0.00 69 1009.4
20260504231543 89 16 12.0 22.0 0.00 0.00 0.00 67 1009.4
20260504230046 90 338 13.0 21.0 0.00 0.00 0.00 67 1009.6
20260504224547 91 19 15.0 22.0 0.00 0.00 0.00 65 1009.3
20260504223042 92 355 14.0 20.0 0.00 0.00 0.00 64 1009.4
20260504221542 94 39 17.0 22.0 0.00 0.00 0.00 60 1009.4
20260504220042 95 34 10.0 18.0 0.00 0.00 0.00 58 1009.3
20260504214551 96 43 14.0 19.0 0.00 0.00 0.00 58 1009.2
20260504213040 95 43 9.0 20.0 0.00 0.00 0.00 59 1009.4
20260504211538 96 28 12.0 23.0 0.00 0.00 0.00 58 1009.3
20260504210053 95 53 10.0 21.0 0.00 0.00 0.00 59 1009.4
20260504204552 96 5 13.0 18.0 0.00 0.00 0.00 58 1009.6
20260504203036 96 102 17.0 21.0 0.00 0.00 0.00 58 1009.7
20260504201532 94 355 9.0 19.0 0.00 0.00 0.00 60 1010.0
20260504200031 96 43 10.0 16.0 0.00 0.00 0.00 59 1010.2
20260504194530 95 29 13.0 23.0 0.00 0.00 0.00 61 1010.7
20260504193029 96 42 12.0 19.0 0.00 0.00 0.00 59 1010.4
20260504191525 96 55 13.0 19.0 0.00 0.00 0.00 59 1010.9
20260504184519 94 36 12.0 18.0 0.00 0.00 0.00 62 1011.3
20260504183018 95 355 3.0 12.0 0.00 0.00 0.00 61 1011.3
20260504181515 93 86 6.0 17.0 0.00 0.00 0.00 60 1011.6
20260504180013 94 18 3.0 10.0 0.00 0.00 0.00 60 1011.9
20260504174511 93 145 2.0 9.0 0.00 0.00 0.00 61 1012.2
20260504173009 93 346 4.0 8.0 0.00 0.00 0.00 61 1012.6
20260504171505 92 93 3.0 11.0 0.00 0.00 0.00 62 1012.7
20260504081549 79 38 11.0 17.0 0.00 0.00 0.00 86 1012.6
20260504050023 80 47 13.0 19.0 0.00 0.00 0.00 82 1014.7
20260504044524 80 43 11.0 17.0 0.00 0.00 0.00 82 1014.7
20260504043019 80 28 9.0 16.0 0.00 0.00 0.00 82 1014.9
20260504041534 80 20 10.0 16.0 0.00 0.00 0.00 82 1014.8
20260504040021 80 340 10.0 16.0 0.00 0.00 0.00 83 1014.8
20260504034515 80 28 8.0 15.0 0.00 0.00 0.00 82 1014.8
20260504033014 80 9 9.0 15.0 0.00 0.00 0.00 82 1014.7
20260504031512 81 9 8.0 15.0 0.00 0.00 0.00 82 1014.5
20260504030011 81 5 9.0 13.0 0.00 0.00 0.00 82 1014.4
20260504024511 81 13 7.0 15.0 0.00 0.00 0.00 81 1014.7
20260504023010 81 14 8.0 16.0 0.00 0.00 0.00 81 1014.3
20260504021509 81 34 7.0 18.0 0.00 0.00 0.00 81 1014.3
20260504020010 81 342 10.0 15.0 0.00 0.00 0.00 80 1014.1
20260504014511 82 24 12.0 17.0 0.00 0.00 0.00 80 1014.0
20260504013007 82 34 13.0 19.0 0.00 0.00 0.00 80 1014.0
20260504011506 82 30 11.0 18.0 0.00 0.00 0.00 80 1013.6
20260504010010 82 41 15.0 21.0 0.00 0.00 0.00 80 1013.4
20260504004510 83 45 12.0 18.0 0.00 0.00 0.00 79 1013.1
20260504003003 83 328 8.0 15.0 0.00 0.00 0.00 79 1012.8